When you browse on this site, cookies collect data to enhance your experience and personalize the content and advertising you see.
Visit our Privacy Policy to learn more. By continuing to use the site, you agree to this use of cookies and data.
  • în România
  • Lista ţărilor
  • Pe 7 zile
  • Temperatura apei
  • Hartă satelitară
  • Meteo pe hartă
  • Widget-uri
  • user-avatar
    Intrare

    Meteo pe oră la Spiridonovka

    Astăzi, 21 Mai, Marţi

    Timp Temperatura Precipitaţii Vânt Presiune Umiditate
    00:00 +5°C° 0 mm 2 m/s 760 mmHg 73%
    01:00 +4°C° 0 mm 3 m/s 760 mmHg 75%
    02:00 +4°C° 0 mm 3 m/s 761 mmHg 76%
    03:00 +5°C° 0 mm 2 m/s 760 mmHg 82%
    04:00 +5°C° 0 mm 3 m/s 761 mmHg 79%
    05:00 +7°C° 0 mm 3 m/s 761 mmHg 76%
    06:00 +7°C° 0 mm 4 m/s 761 mmHg 73%
    07:00 +8°C° 0.1 mm 4 m/s 761 mmHg 65%
    08:00 +11°C° 0.1 mm 4 m/s 761 mmHg 57%
    09:00 +12°C° 0 mm 5 m/s 761 mmHg 49%
    10:00 +13°C° 0 mm 5 m/s 761 mmHg 48%
    11:00 +13°C° 0 mm 5 m/s 761 mmHg 46%
    12:00 +14°C° 0 mm 5 m/s 761 mmHg 45%
    13:00 +14°C° 0 mm 5 m/s 761 mmHg 44%
    14:00 +14°C° 0 mm 5 m/s 761 mmHg 44%
    15:00 +15°C° 0 mm 4 m/s 761 mmHg 44%
    16:00 +14°C° 0 mm 4 m/s 761 mmHg 48%
    17:00 +14°C° 0 mm 3 m/s 761 mmHg 52%
    18:00 +15°C° 0 mm 2 m/s 761 mmHg 55%
    19:00 +13°C° 0 mm 2 m/s 761 mmHg 58%
    20:00 +12°C° 0 mm 2 m/s 761 mmHg 60%
    21:00 +10°C° 0 mm 2 m/s 761 mmHg 62%
    22:00 +9°C° 0 mm 2 m/s 761 mmHg 63%
    23:00 +9°C° 0 mm 3 m/s 761 mmHg 65%

    Mâine, 22 Mai, Miercuri

    Timp Temperatura Precipitaţii Vânt Presiune Umiditate
    00:00 +8°C° 0 mm 3 m/s 761 mmHg 66%
    01:00 +8°C° 0 mm 3 m/s 761 mmHg 67%
    02:00 +8°C° 0 mm 3 m/s 761 mmHg 67%
    03:00 +7°C° 0 mm 3 m/s 761 mmHg 68%
    04:00 +9°C° 0 mm 3 m/s 761 mmHg 68%
    05:00 +10°C° 0 mm 3 m/s 761 mmHg 67%
    06:00 +12°C° 0 mm 2 m/s 760 mmHg 67%
    07:00 +12°C° 0.2 mm 2 m/s 760 mmHg 68%
    08:00 +13°C° 0.2 mm 2 m/s 760 mmHg 69%
    09:00 +13°C° 0.2 mm 1 m/s 760 mmHg 71%
    10:00 +13°C° 1.9 mm 2 m/s 759 mmHg 77%
    11:00 +12°C° 1.9 mm 2 m/s 759 mmHg 83%
    12:00 +10°C° 1.9 mm 2 m/s 759 mmHg 90%
    13:00 +12°C° 0.5 mm 3 m/s 758 mmHg 86%
    14:00 +13°C° 0.5 mm 3 m/s 758 mmHg 83%
    15:00 +14°C° 0.5 mm 3 m/s 758 mmHg 79%
    16:00 +15°C° 0.5 mm 2 m/s 757 mmHg 82%
    17:00 +15°C° 0.5 mm 2 m/s 757 mmHg 85%
    18:00 +15°C° 0.5 mm 1 m/s 757 mmHg 89%
    19:00 +15°C° 0.5 mm 2 m/s 757 mmHg 90%
    20:00 +14°C° 0.5 mm 2 m/s 757 mmHg 92%
    21:00 +14°C° 0.5 mm 2 m/s 757 mmHg 93%
    22:00 +14°C° 0 mm 2 m/s 756 mmHg 91%
    23:00 +12°C° 0 mm 3 m/s 756 mmHg 89%

    Poimâine, 23 Mai, Joi

    Timp Temperatura Precipitaţii Vânt Presiune Umiditate
    00:00 +12°C° 0 mm 3 m/s 756 mmHg 87%
    01:00 +12°C° 0 mm 4 m/s 755 mmHg 87%
    02:00 +12°C° 0 mm 4 m/s 755 mmHg 87%
    03:00 +12°C° 0 mm 4 m/s 755 mmHg 87%
    04:00 +13°C° 0 mm 4 m/s 755 mmHg 84%
    05:00 +13°C° 0 mm 4 m/s 755 mmHg 80%
    06:00 +14°C° 0 mm 4 m/s 755 mmHg 76%
    07:00 +16°C° 0 mm 5 m/s 754 mmHg 70%
    08:00 +17°C° 0 mm 6 m/s 754 mmHg 64%
    09:00 +19°C° 0 mm 6 m/s 754 mmHg 57%
    10:00 +20°C° 0 mm 7 m/s 754 mmHg 53%
    11:00 +21°C° 0 mm 7 m/s 753 mmHg 48%
    12:00 +22°C° 0 mm 7 m/s 753 mmHg 43%
    13:00 +22°C° 0 mm 7 m/s 752 mmHg 44%
    14:00 +23°C° 0 mm 7 m/s 752 mmHg 44%
    15:00 +23°C° 0 mm 7 m/s 752 mmHg 44%
    16:00 +22°C° 0 mm 6 m/s 751 mmHg 48%
    17:00 +21°C° 0 mm 5 m/s 751 mmHg 52%
    18:00 +20°C° 0 mm 5 m/s 750 mmHg 57%
    19:00 +19°C° 0 mm 4 m/s 750 mmHg 61%
    20:00 +17°C° 0 mm 4 m/s 750 mmHg 65%
    21:00 +15°C° 0 mm 4 m/s 750 mmHg 68%
    22:00 +15°C° 0 mm 4 m/s 750 mmHg 73%
    23:00 +14°C° 0 mm 5 m/s 749 mmHg 78%

    24 Mai, Vineri

    Timp Temperatura Precipitaţii Vânt Presiune Umiditate
    00:00 +14°C° 0 mm 5 m/s 749 mmHg 83%
    01:00 +14°C° 0.2 mm 5 m/s 749 mmHg 86%
    02:00 +14°C° 0.2 mm 4 m/s 749 mmHg 89%
    03:00 +14°C° 0.2 mm 4 m/s 749 mmHg 92%
    04:00 +13°C° 1.3 mm 5 m/s 749 mmHg 91%
    05:00 +12°C° 1.3 mm 5 m/s 750 mmHg 91%
    06:00 +11°C° 1.3 mm 6 m/s 750 mmHg 90%
    07:00 +11°C° 0.1 mm 6 m/s 751 mmHg 84%
    08:00 +13°C° 0.1 mm 6 m/s 751 mmHg 77%
    09:00 +13°C° 0.1 mm 6 m/s 752 mmHg 70%
    10:00 +14°C° 0 mm 6 m/s 752 mmHg 65%
    11:00 +14°C° 0 mm 6 m/s 753 mmHg 60%
    12:00 +15°C° 0 mm 6 m/s 753 mmHg 55%
    13:00 +15°C° 0 mm 6 m/s 754 mmHg 54%
    14:00 +15°C° 0 mm 6 m/s 754 mmHg 54%
    15:00 +15°C° 0 mm 6 m/s 754 mmHg 54%
    16:00 +14°C° 0 mm 5 m/s 755 mmHg 56%
    17:00 +14°C° 0 mm 5 m/s 755 mmHg 59%
    18:00 +13°C° 0 mm 4 m/s 756 mmHg 62%
    19:00 +12°C° 0 mm 4 m/s 756 mmHg 64%
    20:00 +10°C° 0 mm 3 m/s 757 mmHg 67%
    21:00 +9°C° 0 mm 3 m/s 758 mmHg 69%
    22:00 +8°C° 0 mm 3 m/s 758 mmHg 70%
    23:00 +8°C° 0 mm 2 m/s 758 mmHg 70%

    25 Mai, Sâmbătă

    Timp Temperatura Precipitaţii Vânt Presiune Umiditate
    00:00 +7°C° 0 mm 2 m/s 759 mmHg 70%
    01:00 +7°C° 0 mm 2 m/s 759 mmHg 70%
    02:00 +6°C° 0 mm 2 m/s 759 mmHg 71%
    03:00 +7°C° 0 mm 1 m/s 760 mmHg 71%
    04:00 +8°C° 0 mm 1 m/s 760 mmHg 68%
    05:00 +9°C° 0 mm 1 m/s 760 mmHg 65%
    06:00 +10°C° 0 mm 1 m/s 761 mmHg 62%
    07:00 +10°C° 0 mm 2 m/s 761 mmHg 56%
    08:00 +12°C° 0 mm 2 m/s 761 mmHg 50%
    09:00 +14°C° 0 mm 2 m/s 761 mmHg 43%
    10:00 +14°C° 0 mm 2 m/s 761 mmHg 42%
    11:00 +15°C° 0 mm 2 m/s 761 mmHg 41%
    12:00 +16°C° 0 mm 2 m/s 761 mmHg 40%
    13:00 +17°C° 0 mm 2 m/s 761 mmHg 39%
    14:00 +17°C° 0 mm 2 m/s 760 mmHg 39%
    15:00 +17°C° 0 mm 2 m/s 760 mmHg 38%
    16:00 +17°C° 0 mm 2 m/s 760 mmHg 43%
    17:00 +17°C° 0 mm 2 m/s 760 mmHg 47%
    18:00 +16°C° 0 mm 2 m/s 760 mmHg 51%
    19:00 +15°C° 0 mm 2 m/s 760 mmHg 54%
    20:00 +12°C° 0 mm 3 m/s 760 mmHg 57%
    21:00 +11°C° 0 mm 3 m/s 760 mmHg 60%
    22:00 +10°C° 0 mm 3 m/s 760 mmHg 61%
    23:00 +10°C° 0 mm 4 m/s 760 mmHg 62%

    26 Mai, Duminică

    Timp Temperatura Precipitaţii Vânt Presiune Umiditate
    00:00 +8°C° 0 mm 4 m/s 760 mmHg 63%
    01:00 +8°C° 0 mm 4 m/s 760 mmHg 64%
    02:00 +8°C° 0 mm 4 m/s 760 mmHg 64%
    03:00 +8°C° 0 mm 4 m/s 760 mmHg 65%
    04:00 +8°C° 0 mm 5 m/s 759 mmHg 64%
    05:00 +9°C° 0 mm 5 m/s 759 mmHg 64%
    06:00 +10°C° 0 mm 6 m/s 759 mmHg 63%
    07:00 +13°C° 0 mm 6 m/s 759 mmHg 59%
    08:00 +14°C° 0 mm 7 m/s 758 mmHg 56%
    09:00 +16°C° 0 mm 7 m/s 758 mmHg 52%
    10:00 +17°C° 0 mm 7 m/s 757 mmHg 51%
    11:00 +18°C° 0 mm 7 m/s 757 mmHg 50%
    12:00 +20°C° 0 mm 7 m/s 757 mmHg 49%
    13:00 +18°C° 0.2 mm 7 m/s 756 mmHg 54%
    14:00 +17°C° 0.2 mm 6 m/s 756 mmHg 60%
    15:00 +17°C° 0.2 mm 6 m/s 755 mmHg 65%
    16:00 +16°C° 0.1 mm 6 m/s 755 mmHg 66%
    17:00 +16°C° 0.1 mm 6 m/s 754 mmHg 66%
    18:00 +16°C° 0.1 mm 7 m/s 753 mmHg 67%
    19:00 +16°C° 0 mm 7 m/s 753 mmHg 66%
    20:00 +16°C° 0 mm 7 m/s 752 mmHg 65%
    21:00 +16°C° 0 mm 7 m/s 752 mmHg 64%
    22:00 +16°C° 0.1 mm 7 m/s 751 mmHg 68%
    23:00 +17°C° 0.1 mm 7 m/s 751 mmHg 72%
    Arată mai mult